Regional Weather Roundup
Issued by NWS

Current Version | Previous Version | Text Only | Print | Product List | Glossary On
Versions: 1 2 3 4 5 6 7 8 9 10 11 12 13 14 15 16 17 18 19 20 21 22 23 24 25 26 27 28 29 30 31 32 33 34 35 36 37 38 39 40 41 42 43 44 45 46 47 48 49 50
000
ASUS46 KSTO 230815
RWRCA

NORTHERN AND CENTRAL CA REGIONAL WEATHER ROUNDUP
NATIONAL WEATHER SERVICE SACRAMENTO CA
1200 AM PST SAT FEB 23 2019

NOTE: FAIR INDICATES FEW OR NO CLOUDS BELOW 12,000 FEET WITH NO
SIGNIFICANT WEATHER AND/OR OBSTRUCTIONS TO VISIBILITY.

CAZ001-003-230900-
NORTHWEST AREA

CITY           SKY/WX    TMP DP  RH WIND       PRES   REMARKS
CRESCENT CITY  CLOUDY    43  38  82 E3        30.25R
UKIAH          CLEAR     36  29  75 CALM      30.24R
$$

CAZ006-505>513-230900-
BAY AREA

CITY           SKY/WX    TMP DP  RH WIND       PRES   REMARKS
SANTA ROSA     CLEAR     35  33  92 W5        30.22R WCI  31
SAN RAFAEL     N/A      MM  MM  MM MISG
NAPA           CLEAR     35  32  88 CALM      30.23S
CONCORD        CLEAR     40  30  67 S5        30.25R
OAKLAND CITY   N/A       44  MM  MM MISG
OAKLAND        CLEAR     44  36  73 E7        30.24S
SAN FRAN CITY  N/A       47  MM  67 MISG
SAN FRAN ARPT  CLEAR     45  38  76 S6        30.23S
LIVERMORE      CLEAR     34  27  75 E3        30.24S
HAYWARD        CLEAR     41  31  67 E5        30.24S
REDWOOD CITY   N/A       38  MM  81 MISG
MOFFETT ARPT   CLEAR     41  31  67 CALM      30.25F
SAN JOSE ARPT  PTCLDY    40  31  70 S5        30.26R
$$
CAZ034-037-514>518-230900-
CENTRAL COAST

CITY           SKY/WX    TMP DP  RH WIND       PRES   REMARKS
WATSONVILLE    CLEAR     38  31  76 N6        30.26R WCI  33
SALINAS        CLEAR     41  32  70 S3        30.25R
MONTEREY       CLEAR     43  32  65 SE6       30.24S
SAN LUIS OBISP CLEAR     37  31  78 SE3       30.24R
SANTA MARIA    CLEAR     39  34  82 SE3       30.24R
$$
CAZ015-016-230900-
NORTHERN SACRAMENTO VALLEY

CITY           SKY/WX    TMP DP  RH WIND       PRES   REMARKS
REDDING        CLOUDY    36  25  64 CALM      30.21S
RED BLUFF      CLEAR     34  25  69 CALM      30.23R
OROVILLE       CLEAR     38  29  70 E6        30.25R WCI  33
$$
CAZ016>018-230900-
SOUTHERN SACRAMENTO VALLEY

CITY           SKY/WX    TMP DP  RH WIND       PRES   REMARKS
AUBURN         CLEAR     36  27  69 E6        30.22S WCI  31
BEALE AFB      CLEAR     39  27  61 E9        30.22S WCI  33
LINCOLN        FAIR      34  30  86 E8        30.24S WCI  27
MARYSVILLE     CLEAR     37  29  72 E5        30.25R WCI  33
SAC INTL ARPT  CLEAR     40  28  62 SE8       30.24R WCI  34
MATHER AIRPORT NOT AVBL
DOWNTOWN SAC   N/A       39  MM  MM MISG
SAC EXEC ARPT  CLEAR     38  27  64 E6        30.25R WCI  33
VACAVILLE      CLEAR     32  29  88 CALM      30.25R
TRAVIS AFB     CLEAR     35  31  84 SW7       30.24R WCI  29
$$
CAZ019>021-230900-
SAN JOAQUIN VALLEY

CITY           SKY/WX    TMP DP  RH WIND       PRES   REMARKS
STOCKTON       CLEAR     36  29  75 SE5       30.25R WCI  32
MODESTO        CLEAR     35  31  85 SE3       30.25R
MERCED         CLEAR     35  32  88 S3        30.25R
LEMOORE        CLEAR     33  28  81 W8        30.26R WCI  26
FRESNO         CLEAR     40  34  79 CALM      30.25R
HANFORD        CLEAR     36  34  92 E5        30.26R FOG     WCI  32
BAKERSFIELD    CLEAR     40  32  73 CALM      30.25R
$$
CAZ011-012-071-230900-
NORTHERN MOUNTAINS

CITY           SKY/WX    TMP DP  RH WIND       PRES   REMARKS
YREKA          PTCLDY    31  25  78 SE6       30.14F WCI  25
MOUNT SHASTA   PTCLDY    26  21  81 CALM      30.12S HAZE
ALTURAS        CLOUDY    21  13  71 CALM      30.11S
$$
CAZ011-012-071-230900-
SIERRA NEVADA MTNS

CITY           SKY/WX    TMP DP  RH WIND       PRES   REMARKS
BLUE CANYON    CLEAR     26  17  68 CALM      30.14S
TRUCKEE        PTCLDY     9   7  92 CALM      30.14S FOG
TAHOE VLY ARPT PTCLDY     5   2  87 S7        30.12R WCI  -7
MAMMOTH LAKES  FAIR      -1  -6  78 N5        30.10R WCI -11
$$



USA.gov is the U.S. government's official web portal to all federal, state and local government web resources and services.